Weather History for Munising, MI

Change the Weather History Date:

Saturday, March 8, 2014

  Actual Average (KISQ) Record (KISQ)
Temperature  
Mean Temperature 13 °F -  
Max Temperature 21 °F 33 °F 49 °F (1987)
Min Temperature 5 °F 13 °F -17 °F (1967)
Degree Days  
Heating Degree Days 52    
Moisture  
Dew Point 7 °F    
Average Humidity 69    
Maximum Humidity 80    
Minimum Humidity 55    
Precipitation  
Precipitation 0.00 in - - ()
Sea Level Pressure  
Sea Level Pressure 30.23 in    
Wind  
Wind Speed 11 mph (North)    
Max Wind Speed 17 mph    
Max Gust Speed 23 mph    
Averages and records for this station are not official NWS values.
T = Trace of Precipitation, MM = Missing Value Source: NWS Daily Summary

Daily Weather History Graph

Daily Weather History Graph

Search for Another Location

Airport:

Trip Planner

Search our weather history database for the weather conditions in past years. The results will help you decide how hot, cold, wet, or windy it might be!

Date:

Astronomy

Mar. 08, 2014 Rise Set
Actual Time 7:12 AM EST 6:42 PM EST
Civil Twilight 6:42 AM EST 7:12 PM EST
Nautical Twilight 6:07 AM EST 7:47 PM EST
Astronomical Twilight 5:32 AM EST 8:22 PM EST
Moon 11:31 AM EST (3/8) 2:01 AM EST (3/8)
Length of Visible Light 12h 29m
Length of Day
11h 29m
First Quarter, 51% of the Moon is Illuminated
Mar 8
First Quarter
Mar 16
Full
Mar 23
Last Quarter
Mar 30
New
Apr 7
First Quarter

Hourly Weather History & Observations

Time (EST) Temp. Windchill Dew Point Humidity Pressure Visibility Wind Dir Wind Speed Gust Speed Precip Events Conditions
12:56 AM 21.9 °F 11.0 °F 15.1 °F 75% 30.12 in - North 10.4 mph - N/A   Unknown
2:56 AM 19.0 °F 4.0 °F 12.0 °F 74% 30.17 in - North 17.3 mph 20.7 mph N/A   Unknown
3:56 AM 18.0 °F 4.8 °F 10.9 °F 74% 30.19 in - North 12.7 mph 23.0 mph N/A   Unknown
4:56 AM 17.1 °F 3.0 °F 10.0 °F 74% 30.21 in - North 13.8 mph - N/A   Unknown
5:56 AM 17.1 °F 4.3 °F 10.0 °F 74% 30.23 in - North 11.5 mph - N/A   Unknown
6:56 AM 16.0 °F 2.9 °F 9.0 °F 74% 30.24 in - North 11.5 mph - N/A   Unknown
7:56 AM 15.1 °F 1.1 °F 8.1 °F 74% 30.27 in - North 12.7 mph - N/A   Unknown
8:56 AM 16.0 °F 3.6 °F 7.0 °F 68% 30.28 in - North 10.4 mph - N/A   Unknown
9:56 AM 16.0 °F 1.7 °F 8.1 °F 71% 30.29 in - NNE 13.8 mph - N/A   Unknown
10:56 AM 16.0 °F 2.9 °F 6.1 °F 65% 30.30 in - NNE 11.5 mph - N/A   Unknown
11:56 AM 17.1 °F 4.3 °F 7.0 °F 65% 30.30 in - NE 11.5 mph - N/A   Unknown
12:56 PM 18.0 °F 4.8 °F 7.0 °F 62% 30.28 in - NE 12.7 mph - N/A   Unknown
1:56 PM 19.0 °F 8.2 °F 7.0 °F 59% 30.26 in - NNE 9.2 mph - N/A   Unknown
2:56 PM 19.9 °F 7.3 °F 6.1 °F 55% 30.25 in - NNW 12.7 mph - N/A   Unknown
3:56 PM 19.9 °F 9.3 °F 6.1 °F 55% 30.24 in - NNW 9.2 mph - N/A   Unknown
4:56 PM 19.0 °F 11.1 °F 6.1 °F 57% 30.23 in - NW 5.8 mph - N/A   Unknown
5:56 PM 16.0 °F 10.4 °F 5.0 °F 62% 30.22 in - NNW 3.5 mph - N/A   Unknown
6:56 PM 12.9 °F - 3.0 °F 65% 30.22 in - Calm Calm - N/A   Unknown
7:56 PM 10.9 °F 2.9 °F 5.0 °F 77% 30.22 in - South 4.6 mph - N/A   Unknown
8:56 PM 8.1 °F -3.2 °F 3.0 °F 80% 30.21 in - South 6.9 mph - N/A   Unknown
9:56 PM 6.1 °F -6.8 °F -0.0 °F 76% 30.20 in - South 8.1 mph - N/A   Unknown
10:56 PM 5.0 °F -8.1 °F -0.9 °F 76% 30.20 in - South 8.1 mph - N/A   Unknown
11:56 PM 5.0 °F -6.9 °F -0.9 °F 76% 30.17 in - SSW 6.9 mph - N/A   Unknown